Погода в Койнасе

Поиск расширенной информации на нашем сайте:

Полезная информация:

Новости сайта



02.01.2020
Опубликован Долгосрочный прогноз погоды по городам России и ближнего зарубежья на январь 2020 года.
Карты: Прогноз на январь и февраль 2020 года, Сравнение прогнозируемой аномалии приземной температуры воздуха на январь 2020 года по разным моделям.




Погода в Койнасе - сегодня

Время (UTC), дата Ветер
(°,м/с) 
Видим.   Явления Облачность Т
(°С)
Тd
(°С)
f(%) Тe
(°С)
Pmin
(гПа)
dP
(гПа)
Po
(мм)
O2
(г/м3)
Тmin Tmax R s Состояние
почвы
15 29.11.20 170 (Ю) 50000 м    8/0 верхняя 
[Ci fib]
-13.2 -14.3 91 -13  1041.2  -1  774  329    -13.2       
18 29.11.20 150 (ЮВ) 50000 м    9/0 средняя, верхняя 
[Ac As|Ci fib]
-10.3 -11 95 -10  1039.9  -1.2  773  325           
21 29.11.20 тихо ()   50000 м    9/0 средняя 
[Ac As]
-7.1 -7.7 95 -7  1040.2  0.4  774  321           
00 30.11.20 150 (ЮВ) 50000 м    10/10 210 м 
[St]
-6.3 -6.9 95 -8  1038.9  -1.2  773  320           
03 30.11.20 150 (ЮВ) 50000 м    10/10 300 м 
[St]
-6.1 -6.8 95 -6  1037.8  -1.1  772  319  -13.3      равномерный
сухой снег
100% 
06 30.11.20 140 (ЮВ) 20000 м    10/10 330 м 
[St]
-5.4 -6.1 95 -7  1036.9  -0.9  771  318           
09 30.11.20 150 (ЮВ) 20000 м    10/10 300 м 
[St]
-4.6 -5.3 95 -6  1036  -0.8  771  317           
12 30.11.20 190 (Ю) 20000 м    10/10 300 м 
[St]
-3.7 -4.3 96 -5  1035.3  -0.7  770  315           
15 30.11.20 160 (Ю) 50000 м    10/10 300 м 
[St]
-3.8 -4.6 94 -5  1034.3  -1.1  769  315    -3.6       
18 30.11.20 150 (ЮВ) 50000 м    10/10 1500 м 
[Sc]
-2.8 -3.6 94 -4  1032.5  -1.7  768  313           
21 30.11.20 150 (ЮВ) 50000 м    10/10 400 м 
[St]
-1.8 -2.8 93 -3  1031  -1.4  767  311           
00 01.12.20 180 (Ю) 50000 м    10/10 360 м 
[St]
-1.2 -2.5 91 -2  1028.8  -2.2  765  310           
03 01.12.20 170 (Ю) 50000 м    10/10 330 м 
[St]
-2 -3.5 89 -4  1028  -0.8  765  311  -3.8      равномерный
сухой снег
100% 
06 01.12.20 180 (Ю) 20000 м    10/10 330 м 
[St]
-2.5 -4.1 89 -4  1027.6  -0.4  764  311           
09 01.12.20 180 (Ю) 20000 м    10/10 330 м 
[St]
-2.5 -4 89 -4  1026.9  -0.7  764  311           
12 01.12.20 180 (Ю) 20000 м    10/10 360 м 
[St]
-2.8 -4.5 88 -4  1026.1  -0.8  763  311           
15 01.12.20 170 (Ю) 7000 м  слаб. снег  10/10 330 м 
[Frnb|Ns]
-3.6 -4.4 94 -5  1025.4  -0.7  763  312    -2  0.4     
21 01.12.20 210 (ЮЗ) 8000 м  слаб. снег  10/10 360 м 
[Frnb|Ns]
-2.7 -4.2 89 -4  1025.6  0.6  763  311           
00 02.12.20 200 (Ю) 50000 м  {снег}  10/10 480 м 
[Sc]
-2.3 -3.8 89 -3  1026  0.4  763  311           
03 02.12.20 180 (Ю) 50000 м  {снег}  10/10 420 м 
[St]
-2.3 -3.8 89 -2  1026  0.1  763  311  -3.8    0.6  равномерный
сухой снег
100% 
06 02.12.20 190 (Ю) 4000 м  слаб. ливневой снег  10/8 480 м кучево-дожд., средняя 
[Cb cap|Ac As]
-2.8 -4.3 89 -4  1025.4  -0.5  763  311           
09 02.12.20 200 (Ю) 10 км  слаб. ливневой снег  10/8 600 м кучево-дожд., средняя 
[Cb cap|Ac As]
-2.3 -3.8 89 -3  1026.2  0.8  763  311           
12 02.12.20 210 (ЮЗ) 20000 м  {ливн. осадки}  10/10 400 м 
[St]
-1.8 -2.7 94 -1  1026.8  0.6  764  310           
15 02.12.20 220 (ЮЗ) 14000 м  слаб. ливневой снег  10/10 300 м кучево-дожд. 
[Cb cap]
-1.1 -1.8 95 -1  1028  1.2  765  310    -1  0.6     
18 02.12.20 190 (Ю) 50000 м  {ливн. осадки}  10/10 630 м 
[Sc]
-0.8 -1.4 96 1028.9  0.8  765  310           
Время (UTC), дата Ветер
(°,м/с) 
Видим.   Явления Облачность Т
(°С)
Тd
(°С)
f(%) Тe
(°С)
Pmin
(гПа)
dP
(гПа)
Po
(мм)
O2
(г/м3)
Тmin Tmax R s Состояние
почвы

Для получения пояснительной информации подведите курсор к названию столбца.

ПОГОДА в Койнасе - архив

Всё, что Вы хотите узнать о погоде в Койнасе - удобно и подробно!

Выберите нужную дату (начиная с 1 января 2019* года) и нажмите кнопку "Найти".
Будут отображены архивные сводки погоды по пункту Койнас, начиная с указанной даты.


Отображать данные в формате CSV (для использования в таблицах Excel)


Внимание! Наш архив погоды предназначен исключительно для личного некоммерческого использования в познавательных целях. Если Вам необходимы официальные справки о состоянии погоды (для производственных, юридических, коммерческих и т.п. целей), обращайтесь в органы Росгидромета.

*Примечание: данная дата относится к архиву по метеостанциям СССР (Россия, СНГ, Балтия).
Архив по метеостанциям Зарубежной Европы и Азии (кроме Китая) хранится 10 дней, по другим регионам земного шара (Китай, Африка, Америка, Австралия, Океания) - 1 день.

Койнас - район местоположения метеостанции


Название, широта, долгота, высота метеостанции:
Койнас 64.8°ш. 47.6°д. 64 м над ур. моря [Российская Федерация]

Дополнительная информация

В oтличие oт бoльшинства пoгoдных сайтoв мы публикуем пoдрoбную метеoинфoрмацию в детальнoм прoфессиoнальнoм фoрмате.

Характеристики температуры и влажнoсти вoздуха измеряются на высoте 2 м в тени вдали oт зданий и деревьев.
Скoрoсть ветра измеряется на высoте 10 м (на урoвне рoста челoвека скoрoсть ветра ниже в 1.5-2 раза). Если метеoстанция нахoдится в гoрoде или в лесу, тo скoрoсть ветра занижена на 2-4 м/с пo сравнению с oткрытым местoм. Скoрoсть ветра над акватoриями крупных рек и oзёр, а также на вершинах хoлмoв на 2-5 м/с выше, чем в oбычных услoвиях.
Атмoсфернoе давление в разных тoчках местнoсти мoжет значительнo oтличаться oт давления на метеoстанции, в зависимoсти oт услoвий рельефа (при пoдъёме на 10 м давление пoнижается примернo на 1 мм рт.ст.).